�������l�o���
Date,Time,MP-1(��Sv/h),MP-2(��Sv/h),MP-3(��Sv/h),MP-4(��Sv/h),MP-5(��Sv/h),MP-6(��Sv/h),MP-7(��Sv/h),����,����(m/s),���J
2019/01/20,00:00,0.220,0.197,0.319,0.300,0.280,0.159,0.096,���k��,3.1,��
2019/01/20,00:10,0.218,0.198,0.321,0.300,0.281,0.159,0.096,�k��,3.0,��
2019/01/20,00:20,0.219,0.197,0.320,0.299,0.281,0.159,0.096,���k��,2.9,��
2019/01/20,00:30,0.220,0.196,0.321,0.300,0.281,0.159,0.096,���k��,2.8,��
2019/01/20,00:40,0.220,0.198,0.323,0.300,0.279,0.159,0.096,���k��,3.0,��
2019/01/20,00:50,0.219,0.197,0.321,0.300,0.280,0.159,0.096,�k��,2.5,��
2019/01/20,01:00,0.219,0.198,0.322,0.300,0.280,0.160,0.097,�k��,3.0,��
2019/01/20,01:10,0.219,0.197,0.321,0.300,0.280,0.159,0.096,�k��,4.6,��
2019/01/20,01:20,0.220,0.198,0.321,0.300,0.279,0.159,0.097,�k��,5.2,��
2019/01/20,01:30,0.219,0.198,0.321,0.302,0.279,0.160,0.096,���k��,4.7,��
2019/01/20,01:40,0.219,0.198,0.320,0.300,0.280,0.159,0.096,���k��,4.4,��
2019/01/20,01:50,0.219,0.197,0.320,0.299,0.279,0.160,0.096,��,3.7,��
2019/01/20,02:00,0.220,0.197,0.320,0.300,0.280,0.159,0.096,���쐼,3.5,��
2019/01/20,02:10,0.219,0.198,0.320,0.300,0.280,0.159,0.096,���쐼,3.4,��
2019/01/20,02:20,0.219,0.198,0.321,0.299,0.280,0.160,0.096,���쐼,3.4,��
2019/01/20,02:30,0.218,0.197,0.321,0.300,0.280,0.159,0.095,���쐼,3.7,��
2019/01/20,02:40,0.219,0.197,0.321,0.300,0.280,0.159,0.096,���쐼,4.8,��
2019/01/20,02:50,0.219,0.197,0.320,0.300,0.280,0.159,0.096,���쐼,5.6,��
2019/01/20,03:00,0.219,0.198,0.322,0.298,0.280,0.158,0.096,�쐼,5.0,��
2019/01/20,03:10,0.219,0.197,0.322,0.299,0.280,0.159,0.097,�쐼,4.3,��
2019/01/20,03:20,0.220,0.197,0.321,0.300,0.280,0.159,0.096,���쐼,2.5,��
2019/01/20,03:30,0.219,0.197,0.321,0.300,0.280,0.159,0.097,�쐼,2.5,��
2019/01/20,03:40,0.219,0.197,0.321,0.299,0.280,0.160,0.097,�쐼,2.0,��
2019/01/20,03:50,0.219,0.198,0.320,0.300,0.280,0.159,0.096,�쐼,2.4,��
2019/01/20,04:00,0.220,0.197,0.320,0.300,0.280,0.159,0.096,�쐼,2.9,��
2019/01/20,04:10,0.219,0.198,0.320,0.300,0.280,0.159,0.096,�쐼,4.1,��
2019/01/20,04:20,0.217,0.197,0.322,0.300,0.278,0.160,0.096,�쐼,5.0,��
2019/01/20,04:30,0.219,0.198,0.321,0.298,0.279,0.159,0.096,�쐼,5.9,��
2019/01/20,04:40,0.218,0.198,0.321,0.301,0.279,0.159,0.097,��쐼,6.3,��
2019/01/20,04:50,0.219,0.197,0.321,0.299,0.278,0.159,0.096,��쐼,6.1,��
2019/01/20,05:00,0.220,0.198,0.321,0.299,0.279,0.159,0.096,��쐼,5.7,��
2019/01/20,05:10,0.220,0.198,0.320,0.299,0.279,0.160,0.096,��쐼,5.5,��
2019/01/20,05:20,0.218,0.197,0.321,0.299,0.279,0.159,0.096,��쐼,7.0,��
2019/01/20,05:30,0.219,0.197,0.321,0.299,0.280,0.159,0.096,��쐼,8.4,��
2019/01/20,05:40,0.219,0.197,0.320,0.300,0.279,0.159,0.096,��쐼,8.7,��
2019/01/20,05:50,0.219,0.197,0.321,0.299,0.279,0.159,0.096,��쐼,7.6,��
2019/01/20,06:00,0.218,0.197,0.319,0.300,0.280,0.159,0.096,��쐼,7.7,��
2019/01/20,06:10,0.219,0.197,0.320,0.300,0.281,0.159,0.096,��쐼,7.0,��
2019/01/20,06:20,0.218,0.198,0.322,0.300,0.280,0.158,0.096,��쐼,7.0,��
2019/01/20,06:30,0.219,0.197,0.320,0.300,0.281,0.158,0.096,��쐼,6.3,��
2019/01/20,06:40,0.220,0.196,0.320,0.299,0.281,0.159,0.096,��쐼,6.5,��
2019/01/20,06:50,0.219,0.196,0.320,0.300,0.279,0.158,0.097,��쐼,5.4,��
2019/01/20,07:00,0.220,0.197,0.319,0.300,0.279,0.159,0.096,��쐼,5.6,��
2019/01/20,07:10,0.218,0.197,0.321,0.300,0.281,0.158,0.096,��쐼,5.5,��
2019/01/20,07:20,0.218,0.199,0.320,0.299,0.280,0.158,0.096,�쐼,6.7,��
2019/01/20,07:30,0.219,0.198,0.320,0.299,0.280,0.159,0.095,��쐼,5.7,��
2019/01/20,07:40,0.219,0.196,0.320,0.299,0.280,0.160,0.097,��쐼,6.1,��
2019/01/20,07:50,0.219,0.196,0.321,0.301,0.280,0.158,0.096,��쐼,5.1,��
2019/01/20,08:00,0.219,0.198,0.319,0.299,0.278,0.159,0.095,��쐼,4.8,��
2019/01/20,08:10,0.219,0.197,0.319,0.298,0.280,0.159,0.096,��쐼,5.5,��
2019/01/20,08:20,0.219,0.197,0.319,0.299,0.280,0.158,0.096,��쐼,7.4,��
2019/01/20,08:30,0.219,0.197,0.321,0.300,0.280,0.158,0.097,��쐼,7.0,��
2019/01/20,08:40,0.217,0.197,0.319,0.299,0.280,0.159,0.096,��쐼,7.6,��
2019/01/20,08:50,0.219,0.196,0.320,0.299,0.280,0.159,0.096,��쐼,8.1,��
2019/01/20,09:00,0.219,0.196,0.319,0.300,0.280,0.159,0.096,��쐼,6.6,��
2019/01/20,09:10,0.219,0.197,0.319,0.298,0.280,0.159,0.096,��쐼,5.1,��
2019/01/20,09:20,0.219,0.196,0.320,0.299,0.280,0.158,0.096,��,5.2,��
2019/01/20,09:30,0.220,0.196,0.320,0.300,0.279,0.158,0.095,��쐼,5.5,��
2019/01/20,09:40,0.217,0.196,0.320,0.298,0.280,0.158,0.096,��,6.0,��
2019/01/20,09:50,0.219,0.196,0.319,0.299,0.280,0.158,0.095,��쐼,5.5,��
2019/01/20,10:00,0.217,0.196,0.320,0.297,0.279,0.159,0.095,��,6.5,��
2019/01/20,10:10,0.217,0.196,0.320,0.300,0.279,0.158,0.096,��,5.6,��
2019/01/20,10:20,0.217,0.197,0.319,0.297,0.277,0.159,0.096,��쐼,8.1,��
2019/01/20,10:30,0.218,0.195,0.320,0.300,0.279,0.158,0.096,��,5.2,��
2019/01/20,10:40,0.217,0.195,0.320,0.299,0.279,0.159,0.095,��쐼,7.3,��
2019/01/20,10:50,0.217,0.197,0.318,0.298,0.281,0.158,0.096,��쐼,7.4,��
2019/01/20,11:00,0.218,0.195,0.320,0.299,0.278,0.158,0.095,��쐼,6.2,��
2019/01/20,11:10,0.218,0.198,0.318,0.298,0.281,0.159,0.096,��쐼,4.5,��
2019/01/20,11:20,0.219,0.196,0.318,0.299,0.277,0.159,0.096,��쐼,5.8,��
2019/01/20,11:30,0.217,0.197,0.320,0.298,0.281,0.158,0.097,��쐼,4.8,��
2019/01/20,11:40,0.216,0.195,0.319,0.298,0.280,0.159,0.095,��쐼,4.2,��
2019/01/20,11:50,0.219,0.197,0.319,0.297,0.277,0.159,0.095,��쐼,4.8,��
2019/01/20,12:00,0.216,0.196,0.317,0.300,0.281,0.158,0.096,��,5.1,��
2019/01/20,12:10,0.219,0.198,0.320,0.297,0.278,0.158,0.097,��,5.0,��
2019/01/20,12:20,0.218,0.196,0.319,0.300,0.281,0.159,0.096,��,3.5,��
2019/01/20,12:30,0.220,0.198,0.320,0.299,0.280,0.159,0.096,��쓌,3.9,��
2019/01/20,12:40,0.218,0.196,0.320,0.299,0.282,0.158,0.095,��쓌,3.2,��
2019/01/20,12:50,0.220,0.196,0.320,0.298,0.279,0.158,0.096,��쓌,4.7,��
2019/01/20,13:00,0.218,0.196,0.319,0.300,0.282,0.158,0.096,��쓌,5.4,��
2019/01/20,13:10,0.217,0.198,0.319,0.297,0.280,0.159,0.095,��쓌,5.0,��
2019/01/20,13:20,0.218,0.196,0.318,0.299,0.281,0.159,0.094,��쓌,5.3,��
2019/01/20,13:30,0.217,0.197,0.319,0.296,0.280,0.159,0.096,��쓌,4.8,��
2019/01/20,13:40,0.216,0.196,0.318,0.300,0.281,0.158,0.097,��쓌,3.4,��
2019/01/20,13:50,0.219,0.197,0.319,0.297,0.280,0.159,0.096,��쓌,2.9,��
2019/01/20,14:00,0.218,0.195,0.319,0.301,0.283,0.159,0.095,�쓌,2.9,��
2019/01/20,14:10,0.219,0.197,0.319,0.298,0.279,0.159,0.095,�k,5.0,��
2019/01/20,14:20,0.218,0.196,0.321,0.299,0.281,0.159,0.096,�k,4.2,��
2019/01/20,14:30,0.218,0.198,0.319,0.298,0.280,0.159,0.095,�k,4.8,��
2019/01/20,14:40,0.219,0.198,0.320,0.300,0.282,0.159,0.096,�k,5.3,��
2019/01/20,14:50,0.218,0.197,0.320,0.301,0.281,0.159,0.096,�k,5.0,��
2019/01/20,15:00,0.219,0.197,0.321,0.299,0.280,0.159,0.096,�k,4.8,��
2019/01/20,15:10,0.219,0.197,0.321,0.300,0.284,0.158,0.096,�k,2.6,��
2019/01/20,15:20,0.219,0.196,0.319,0.299,0.281,0.158,0.096,�k,5.2,��
2019/01/20,15:30,0.218,0.198,0.319,0.300,0.282,0.159,0.097,�k�k��,4.2,��
2019/01/20,15:40,0.220,0.198,0.320,0.300,0.281,0.158,0.097,�k�k��,4.5,��
2019/01/20,15:50,0.219,0.197,0.320,0.300,0.280,0.159,0.096,�k,5.8,��
2019/01/20,16:00,0.219,0.198,0.319,0.301,0.284,0.159,0.096,�k,7.6,��
2019/01/20,16:10,0.219,0.198,0.321,0.299,0.281,0.159,0.097,�k,6.4,��
2019/01/20,16:20,0.219,0.197,0.320,0.301,0.281,0.160,0.096,�k,7.8,��
2019/01/20,16:30,0.219,0.197,0.319,0.301,0.282,0.160,0.096,�k,7.6,��
2019/01/20,16:40,0.220,0.198,0.322,0.298,0.281,0.160,0.096,�k,7.1,��
2019/01/20,16:50,0.219,0.199,0.320,0.300,0.280,0.160,0.097,�k,5.3,��
2019/01/20,17:00,0.220,0.198,0.319,0.301,0.282,0.160,0.097,�k�k��,5.4,��
2019/01/20,17:10,0.220,0.198,0.320,0.300,0.280,0.160,0.096,�k,3.3,��
2019/01/20,17:20,0.220,0.198,0.321,0.300,0.281,0.160,0.096,�k�k��,2.6,��
2019/01/20,17:30,0.221,0.197,0.320,0.300,0.282,0.159,0.097,�k��,2.2,��
2019/01/20,17:40,0.220,0.197,0.320,0.301,0.280,0.159,0.096,�k��,6.0,��
2019/01/20,17:50,0.217,0.198,0.321,0.299,0.281,0.159,0.095,�k��,5.9,��
2019/01/20,18:00,0.220,0.198,0.320,0.300,0.280,0.159,0.095,���k��,7.7,��
2019/01/20,18:10,0.220,0.196,0.320,0.300,0.281,0.160,0.097,���k��,8.4,��
2019/01/20,18:20,0.218,0.199,0.321,0.302,0.281,0.160,0.096,��,7.3,��
2019/01/20,18:30,0.220,0.197,0.321,0.299,0.280,0.158,0.096,���k��,6.6,��
2019/01/20,18:40,0.220,0.197,0.319,0.300,0.281,0.159,0.096,���k��,5.2,��
2019/01/20,18:50,0.219,0.198,0.319,0.302,0.281,0.159,0.096,��,4.9,��
2019/01/20,19:00,0.219,0.199,0.321,0.301,0.280,0.159,0.096,��,8.6,��
2019/01/20,19:10,0.218,0.199,0.321,0.300,0.280,0.159,0.095,��,7.6,��
2019/01/20,19:20,0.221,0.197,0.320,0.300,0.280,0.160,0.096,��,10.7,��
2019/01/20,19:30,0.220,0.198,0.320,0.301,0.280,0.159,0.097,���k��,12.6,��
2019/01/20,19:40,0.220,0.196,0.320,0.300,0.281,0.160,0.096,��,15.0,��
2019/01/20,19:50,0.219,0.197,0.320,0.301,0.280,0.159,0.096,���k��,13.4,��
2019/01/20,20:00,0.219,0.197,0.320,0.302,0.282,0.160,0.097,���k��,12.8,��
2019/01/20,20:10,0.220,0.197,0.321,0.300,0.281,0.160,0.096,���k��,10.8,��
2019/01/20,20:20,0.219,0.198,0.320,0.299,0.282,0.159,0.096,���k��,9.6,��
2019/01/20,20:30,0.218,0.198,0.322,0.299,0.281,0.159,0.096,���k��,9.2,��
2019/01/20,20:40,0.220,0.198,0.321,0.299,0.281,0.160,0.097,���k��,9.5,��
2019/01/20,20:50,0.219,0.197,0.321,0.300,0.282,0.160,0.096,�k��,9.3,��
2019/01/20,21:00,0.219,0.196,0.322,0.300,0.280,0.160,0.096,���k��,10.1,��
2019/01/20,21:10,0.219,0.196,0.321,0.301,0.281,0.160,0.096,���k��,11.1,��
2019/01/20,21:20,0.219,0.197,0.322,0.300,0.282,0.160,0.097,�k��,10.6,��
2019/01/20,21:30,0.220,0.197,0.322,0.299,0.281,0.160,0.096,���k��,10.6,��
2019/01/20,21:40,0.220,0.198,0.321,0.301,0.281,0.159,0.097,���k��,10.6,��
2019/01/20,21:50,0.219,0.197,0.323,0.300,0.282,0.160,0.097,���k��,10.6,��
2019/01/20,22:00,0.220,0.197,0.321,0.300,0.281,0.160,0.096,�k��,12.3,��
2019/01/20,22:10,0.220,0.198,0.322,0.299,0.281,0.160,0.097,���k��,12.2,��
2019/01/20,22:20,0.219,0.198,0.322,0.300,0.280,0.161,0.097,���k��,12.6,��
2019/01/20,22:30,0.221,0.198,0.323,0.300,0.282,0.161,0.098,���k��,11.8,�L
2019/01/20,22:40,0.222,0.199,0.325,0.303,0.283,0.162,0.099,�k��,11.2,�L
2019/01/20,22:50,0.222,0.200,0.325,0.303,0.284,0.162,0.099,���k��,10.0,��
2019/01/20,23:00,0.222,0.201,0.325,0.303,0.284,0.162,0.099,���k��,9.3,��
2019/01/20,23:10,0.222,0.199,0.324,0.304,0.284,0.162,0.099,���k��,10.9,��
2019/01/20,23:20,0.223,0.199,0.325,0.303,0.282,0.161,0.097,���k��,11.1,��
2019/01/20,23:30,0.221,0.199,0.324,0.302,0.281,0.162,0.098,���k��,13.1,��
2019/01/20,23:40,0.221,0.199,0.324,0.302,0.283,0.161,0.097,���k��,12.0,��
2019/01/20,23:50,0.221,0.199,0.321,0.301,0.282,0.160,0.098,���k��,11.8,��
